Probability
0 0 0 0 0 0 0 0 0 0 0 0 0 0 0 0 0 0 0 0 0 0 0 0 0 1 1 0 0 1 1 0 0 0 0 0 0 0 0 0 0 0 0
0 0 0 0 0 0 0 0 0 0 0 0 0 0 0 0 0 0 0 0 0 0 0 0 0 1 1 0 0 1 2 1 1 1 0 0 0 0 0 0 0 0 0
0 0 0 0 0 0 0 0 0 0 0 0 0 0 0 0 0 0 0 0 0 0 0 0 0 1 1 0 0 1 2 2 2 2 1 0 0 0 0 0 0 0 0
0 0 0 0 0 0 0 0 0 0 0 0 0 0 0 0 0 0 0 0 0 0 0 0 0 0 0 0 0 0 1 2 3 3 1 1 1 1 1 1 0 0 0
1 1 1 0 1 1 1 0 0 0 0 0 0 0 0 0 0 0 0 0 0 0 0 0 0 0 0 0 0 0 0 2 4 3 3 2 2 2 2 2 1 1 1
1 1 1 1 2 2 1 0 0 0 0 1 0 0 0 0 0 0 0 0 0 0 0 0 0 0 0 0 0 0 0 2 3 3 2 2 2 2 2 2 2 2 2
1 1 1 2 4 4 2 0 0 0 0 0 0 0 0 0 0 0 0 0 0 0 0 0 0 0 0 0 0 0 0 1 1 1 1 1 1 1 1 1 1 2 2
1 1 2 2 4 5 4 1 0 0 0 0 0 0 0 0 0 0 0 0 0 0 0 0 0 0 0 0 0 0 0 0 0 0 0 0 0 0 0 0 0 1 1
2 2 3 3 4 5 4 3 1 1 0 0 0 0 0 0 0 0 0 0 0 0 0 0 0 0 0 0 0 0 0 0 0 0 0 0 0 0 0 0 0 0 0
2 3 3 3 3 4 4 3 2 1 0 0 0 0 0 0 0 0 0 0 0 0 0 0 0 0 0 0 0 0 0 0 0 0 0 0 0 1 1 0 0 0 0
1 2 3 4 3 3 4 3 3 1 1 0 0 0 0 0 0 0 0 0 0 0 0 0 0 0 0 0 0 0 0 0 0 0 0 0 0 0 1 1 0 0 0
0 1 3 4 4 3 3 3 3 2 1 1 0 0 0 0 0 0 0 0 0 0 0 0 0 0 0 0 0 0 0 0 0 0 0 0 0 0 0 0 0 0 0
1 1 3 4 3 3 3 3 3 3 2 1 0 0 0 0 0 0 0 0 0 0 0 0 0 0 0 0 0 0 0 0 0 0 0 0 0 0 0 0 0 0 0
2 2 3 3 3 3 3 3 3 3 3 2 0 0 0 0 0 0 0 0 0 0 0 0 0 0 0 0 0 0 0 0 0 0 0 0 0 0 0 0 0 0 0
2 3 3 2 2 3 3 3 3 3 3 2 1 0 0 0 0 0 0 0 0 0 0 0 0 0 0 0 0 0 0 0 0 0 0 0 0 0 0 0 0 0 0
1 2 3 2 2 2 3 3 3 3 3 3 2 1 1 0 0 0 0 0 0 0 0 0 0 0 0 0 0 0 0 0 0 0 0 0 0 0 0 0 0 0 0
0 1 2 2 1 1 2 2 2 2 2 2 2 2 2 1 0 0 0 0 0 0 0 0 0 0 0 0 0 0 0 0 0 0 0 0 0 0 0 0 0 0 0
0 0 1 1 0 0 1 1 1 1 1 1 1 2 2 2 1 0 0 0 0 0 0 0 0 0 0 0 0 0 0 0 0 0 0 0 0 0 0 0 0 0 0
0 0 0 0 0 0 0 0 0 0 0 0 0 1 1 1 1 0 0 0 0 0 0 0 0 0 0 0 0 0 0 0 0 0 0 0 0 0 0 0 0 0 0
0 0 0 0 0 0 0 0 0 0 0 0 0 0 0 0 0 0 0 0 0 0 0 0 0 0 0 0 0 0 0 0 0 0 0 0 0 0 0 0 0 0 0
0 0 0 0 0 0 0 0 0 0 0 0 0 0 0 0 0 0 0 0 0 0 0 0 0 0 0 0 0 0 0 0 0 0 0 0 0 0 0 0 0 0 0
0 0 0 0 0 0 0 0 0 0 0 0 0 0 0 0 0 0 0 0 0 0 0 0 0 0 0 0 0 0 0 0 0 0 0 0 0 0 0 0 0 0 0
0 0 0 0 0 0 0 0 0 0 0 0 0 0 0 0 0 0 0 0 0 0 0 0 0 0 0 0 0 0 0 0 0 0 0 0 0 0 0 0 0 0 0
0 0 0 0 0 0 0 0 0 0 0 0 0 0 0 0 0 0 0 0 0 0 0 0 0 0 0 0 0 0 0 0 0 0 0 0 0 0 0 0 0 0 0
0 0 0 0 0 0 0 0 0 0 0 0 0 0 0 0 0 0 0 0 0 0 0 0 0 0 0 0 0 0 0 0 0 0 0 0 0 0 0 0 0 0 0
0 0 0 0 0 0 0 0 0 0 0 0 0 0 0 0 0 0 0 0 0 0 0 0 0 0 0 0 0 0 0 0 0 0 0 0 0 0 0 0 0 0 0
Wind_Speed
4 4 4 4 4 4 5 4 4 5 5 5 5 6 5 5 4 4 3 8 9 9 9 9 9 8 8 7 7 6 6 6 6 6 6 6 5 5 5 5 5 5 5
5 5 5 5 5 5 5 5 6 6 5 4 5 6 5 5 5 4 4 5 8 9 9 10 9 9 9 8 8 7 6 6 7 6 7 6 6 6 7 7 6 6 6
6 5 5 5 5 6 6 5 5 4 4 4 5 5 5 5 5 5 5 4 4 8 9 10 10 9 9 9 9 8 8 7 7 7 7 8 7 7 8 8 8 8 8
6 5 5 5 6 5 5 5 5 5 5 4 4 4 4 4 5 5 4 4 4 3 6 8 8 8 9 9 9 9 8 7 7 7 8 8 8 9 9 9 9 9 9
6 5 5 5 6 5 5 6 5 5 5 5 4 4 3 4 4 4 5 5 5 4 4 6 7 7 7 9 10 10 9 8 7 8 8 8 9 10 11 10 10 10 10
5 5 5 5 6 5 5 5 5 5 4 4 4 4 3 3 3 4 5 4 4 5 5 4 4 5 8 8 9 10 10 9 8 9 9 9 9 10 11 11 11 11 11
4 5 4 4 5 5 6 6 4 5 4 3 2 1 2 3 4 3 3 3 4 4 4 4 3 3 3 7 8 9 10 10 9 9 9 9 10 11 11 12 12 12 11
3 4 4 4 5 5 5 5 4 3 3 4 3 2 1 2 3 4 3 4 4 3 3 4 4 4 3 3 5 8 9 10 11 11 11 11 11 12 12 12 12 12 12
2 2 3 3 4 4 4 5 5 6 4 4 3 4 3 4 2 2 3 3 3 3 3 3 4 5 4 3 3 6 8 9 11 12 12 13 13 13 14 14 13 13 13
1 1 1 1 2 2 3 4 4 4 5 4 2 2 2 3 3 2 2 2 3 4 4 3 4 4 4 3 4 6 7 8 11 13 14 14 14 15 15 14 14 13 13
1 1 0 1 1 1 2 2 2 3 3 4 3 2 2 1 2 2 3 2 2 3 4 4 4 4 4 3 3 5 7 9 11 13 15 15 16 16 15 14 14 14 14
1 1 1 0 1 1 1 2 2 3 2 3 2 2 2 2 3 3 3 3 3 3 3 4 4 4 3 3 4 6 7 9 11 13 15 16 16 16 15 15 15 15 15
1 2 1 0 0 1 2 2 2 2 2 2 2 2 2 2 1 2 3 3 3 3 2 3 4 4 3 3 4 7 8 10 11 14 16 17 16 15 15 15 16 16 16
1 1 1 0 0 1 1 1 1 1 1 1 1 2 1 1 1 2 2 2 3 3 3 4 2 3 2 3 5 7 6 10 12 14 16 17 15 14 14 15 16 16 16
1 1 1 0 1 1 1 2 1 1 1 1 1 1 1 1 1 1 1 2 3 4 4 3 2 2 2 3 5 4 5 10 12 14 14 15 14 13 13 14 14 14 14
1 1 1 1 1 1 1 1 1 1 1 1 1 1 2 1 1 1 1 1 2 4 5 2 3 3 3 4 6 5 6 10 11 13 13 14 13 13 13 13 13 13 14
1 1 1 1 2 1 1 1 1 1 1 1 1 2 2 2 2 2 1 1 2 3 5 4 2 2 3 4 5 4 5 5 6 12 13 13 13 13 13 13 13 14 14
1 1 1 2 2 2 1 1 0 0 0 1 2 1 2 1 2 2 2 2 3 3 4 6 4 3 4 4 5 5 5 5 5 10 12 13 13 13 13 13 14 14 14
2 2 1 1 1 1 1 1 0 0 0 1 2 2 2 2 2 2 3 3 3 3 3 4 5 3 3 3 4 5 6 5 6 8 10 11 12 13 13 13 13 13 12
2 2 1 1 1 1 1 1 1 1 1 1 1 1 2 2 3 3 3 3 3 3 3 4 4 4 3 3 3 4 6 5 6 5 8 8 10 12 13 13 13 12 11
2 1 2 2 2 1 1 1 1 1 1 1 1 1 2 3 4 3 3 3 3 3 3 4 4 4 4 3 4 4 6 6 6 4 4 5 5 6 7 9 11 11 11
2 2 2 2 1 1 3 3 1 0 1 1 1 2 2 3 4 5 6 6 5 4 4 5 5 6 6 5 4 4 5 5 5 2 4 6 4 6 6 5 9 11 12
2 2 2 2 2 2 4 4 4 1 1 1 1 2 2 3 4 3 5 6 6 7 7 5 6 6 6 5 5 6 6 6 7 4 4 7 4 6 5 6 11 12 12
1 2 2 2 2 4 5 5 5 3 2 1 1 2 2 3 4 4 3 3 3 4 5 4 4 5 5 5 5 6 7 7 6 4 3 6 5 5 5 5 10 12 11
2 1 2 2 3 4 6 5 5 2 2 2 2 2 3 3 6 7 3 3 4 4 5 6 7 7 8 9 7 4 4 5 6 4 2 4 4 4 5 5 6 9 9
1 2 2 2 3 3 5 6 6 2 2 2 2 3 5 6 8 7 3 3 4 4 4 5 5 6 6 6 7 4 4 4 5 5 2 2 3 3 4 3 3 4 5
Wind_Direction
202 200 198 194 195 191 191 194 199 201 205 211 216 214 218 220 217 213 220 217 215 214 213 217 219 221 227 233 237 242 245 250 254 257 260 257 256 258 261 263 269 279 287
202 199 200 198 199 198 198 197 200 202 208 209 219 218 217 216 216 211 211 215 218 217 216 221 223 227 230 234 241 245 249 253 257 260 260 262 256 255 261 264 264 269 276
204 201 199 201 204 200 199 198 202 198 205 210 219 222 219 218 217 214 209 207 216 222 220 222 225 230 233 240 245 247 249 253 258 260 258 260 258 258 261 263 264 266 270
210 205 202 204 202 198 195 197 198 198 207 209 216 224 222 218 221 216 209 207 206 215 224 225 229 232 236 243 249 251 252 253 256 260 262 263 260 260 261 262 264 265 266
213 208 210 208 198 197 199 202 199 197 203 210 217 222 222 220 219 214 211 210 207 206 212 225 226 233 239 244 250 254 255 255 255 259 261 262 262 263 264 264 263 265 265
223 211 215 210 199 196 202 202 200 201 201 204 215 224 227 225 217 213 214 209 206 206 208 215 218 237 242 246 252 258 261 261 260 260 261 263 265 266 267 267 265 266 266
229 218 220 211 202 201 202 198 196 198 204 176 166 233 263 241 227 221 213 208 212 211 207 215 215 217 238 243 251 261 265 267 268 266 264 266 269 271 272 273 270 267 267
235 228 216 210 203 203 200 196 191 192 194 177 163 160 236 273 250 229 216 216 219 209 216 224 220 220 228 230 246 254 262 266 268 270 269 269 269 272 274 275 272 269 268
260 242 229 214 203 201 204 199 194 195 195 192 176 169 177 217 246 252 223 218 215 212 224 231 233 233 231 229 240 248 257 265 268 268 269 269 270 272 272 273 271 273 271
310 296 247 218 208 202 199 201 198 198 185 189 197 202 188 167 185 247 269 232 223 222 227 239 240 237 232 229 241 253 260 264 268 272 273 273 271 271 271 272 271 274 274
330 327 310 201 199 201 189 185 197 190 192 188 185 186 200 206 197 197 243 252 249 234 230 233 234 234 232 232 240 261 273 270 270 274 276 276 274 272 271 270 273 273 275
319 337 10 145 196 187 184 183 183 181 191 186 184 187 185 188 198 205 226 237 247 246 238 231 228 233 233 237 253 274 273 271 272 275 277 277 277 275 271 271 273 272 272
319 330 334 344 250 190 174 165 165 170 186 187 191 209 220 223 203 206 222 241 249 259 251 238 232 233 240 244 259 272 268 273 275 276 277 278 278 277 274 272 272 272 271
286 301 298 291 161 146 149 148 159 175 168 185 194 205 221 242 236 222 211 219 255 259 251 250 249 237 249 256 270 274 270 277 276 276 276 278 278 275 273 272 271 271 271
315 330 317 36 59 101 128 139 140 165 156 175 196 205 218 236 244 249 238 216 221 250 256 244 245 265 272 263 276 272 272 279 278 276 276 278 279 277 275 273 272 271 270
11 26 25 41 47 57 84 115 129 128 134 180 197 210 229 239 241 243 239 245 230 237 255 249 249 276 285 291 291 278 270 286 281 279 277 276 275 276 275 274 273 272 269
45 46 32 42 41 41 60 89 108 115 163 225 235 226 241 247 241 245 240 240 243 239 257 268 255 282 276 279 289 280 278 271 275 281 282 278 276 274 273 273 272 270 269
36 38 41 52 40 23 38 64 49 69 188 248 258 245 252 263 257 254 246 246 249 248 252 274 278 271 269 277 280 283 288 289 282 289 289 287 282 277 275 274 272 270 268
35 35 49 57 42 22 23 30 34 335 277 257 254 251 258 255 261 264 256 252 257 270 258 268 279 276 273 284 290 287 285 281 287 292 293 289 285 282 280 277 276 274 271
32 28 33 46 44 31 22 2 1 333 300 287 285 280 278 257 255 261 261 257 260 265 267 266 273 280 279 287 286 289 294 286 288 292 288 290 289 287 283 280 277 274 269
31 27 42 32 23 19 13 11 352 329 297 304 320 313 304 303 298 283 276 262 259 259 265 269 274 280 278 286 281 282 287 295 288 275 284 287 288 283 280 277 278 274 270
25 34 37 27 17 6 20 24 17 346 317 309 310 319 321 318 316 314 308 303 291 275 271 268 271 275 276 275 278 282 286 296 292 278 288 289 285 281 279 272 278 278 271
39 37 30 34 27 13 21 19 18 24 4 330 311 311 319 321 322 300 305 312 305 302 295 280 275 276 283 285 287 285 279 276 274 278 284 283 281 277 278 281 286 279 271
47 42 29 24 27 20 27 33 32 42 35 359 332 313 304 305 308 309 302 304 303 309 302 290 272 277 283 288 276 274 276 281 280 269 249 273 279 276 284 281 282 279 273
39 33 33 39 37 13 15 22 28 39 29 1 340 336 324 310 320 323 312 301 303 301 311 309 304 304 305 303 301 295 291 292 292 284 248 263 275 286 284 278 281 282 278
47 43 37 32 31 15 8 13 18 32 18 353 349 341 336 332 329 327 312 298 296 298 309 313 312 313 307 302 305 285 274 277 288 287 266 272 281 298 295 281 285 288 281